• In Lithuania
  • List of Countries
  • For 7 days
  • Water Temperature
  • Satellite Maps
  • Weather Map
  • Weather Widgets
  • user-avatar
    Login

    Hourly Weather Kenema

    Today, 19 January, Friday

    Time Temperature Precipitation Wind Pressure Humidity
    00:00 +22°C° 0 mm 0 mps 743 mmHg 69%
    01:00 +21°C° 0 mm 0 mps 743 mmHg 75%
    02:00 +21°C° 0 mm 0 mps 743 mmHg 81%
    03:00 +21°C° 0 mm 0 mps 743 mmHg 85%
    04:00 +20°C° 0 mm 0 mps 743 mmHg 88%
    05:00 +20°C° 0 mm 0 mps 743 mmHg 91%
    06:00 +22°C° 0 mm 0 mps 743 mmHg 83%
    07:00 +24°C° 0 mm 0 mps 744 mmHg 76%
    08:00 +26°C° 0 mm 0 mps 744 mmHg 68%
    09:00 +29°C° 0 mm 0 mps 744 mmHg 55%
    10:00 +32°C° 0 mm 0 mps 744 mmHg 42%
    11:00 +36°C° 0 mm 0 mps 744 mmHg 29%
    12:00 +36°C° 0 mm 0 mps 743 mmHg 26%
    13:00 +40°C° 0 mm 1 mps 742 mmHg 23%
    14:00 +40°C° 0 mm 1 mps 742 mmHg 20%
    15:00 +39°C° 0 mm 1 mps 741 mmHg 23%
    16:00 +36°C° 0 mm 1 mps 741 mmHg 25%
    17:00 +35°C° 0 mm 1 mps 741 mmHg 28%
    18:00 +32°C° 0 mm 1 mps 742 mmHg 39%
    19:00 +30°C° 0 mm 1 mps 742 mmHg 49%
    20:00 +27°C° 0 mm 2 mps 743 mmHg 59%
    21:00 +26°C° 0 mm 1 mps 743 mmHg 68%
    22:00 +25°C° 0 mm 1 mps 743 mmHg 78%
    23:00 +22°C° 0 mm 0 mps 743 mmHg 87%

    Tomorrow, 20 January, Saturday

    Time Temperature Precipitation Wind Pressure Humidity
    00:00 +22°C° 0 mm 0 mps 743 mmHg 89%
    01:00 +21°C° 0 mm 0 mps 743 mmHg 92%
    02:00 +21°C° 0 mm 0 mps 743 mmHg 95%
    03:00 +21°C° 0 mm 0 mps 743 mmHg 96%
    04:00 +21°C° 0 mm 0 mps 743 mmHg 96%
    05:00 +21°C° 0 mm 0 mps 743 mmHg 97%
    06:00 +22°C° 0 mm 0 mps 744 mmHg 89%
    07:00 +24°C° 0 mm 0 mps 744 mmHg 81%
    08:00 +26°C° 0 mm 0 mps 745 mmHg 73%
    09:00 +29°C° 0 mm 0 mps 745 mmHg 61%
    10:00 +32°C° 0 mm 0 mps 744 mmHg 48%
    11:00 +35°C° 0 mm 0 mps 744 mmHg 35%
    12:00 +36°C° 0 mm 0 mps 743 mmHg 31%
    13:00 +37°C° 0 mm 0 mps 743 mmHg 27%
    14:00 +38°C° 0 mm 0 mps 742 mmHg 23%
    15:00 +36°C° 0 mm 0 mps 742 mmHg 26%
    16:00 +36°C° 0 mm 1 mps 741 mmHg 29%
    17:00 +35°C° 0 mm 1 mps 741 mmHg 32%
    18:00 +32°C° 0 mm 1 mps 742 mmHg 42%
    19:00 +30°C° 0 mm 1 mps 743 mmHg 52%
    20:00 +28°C° 0 mm 2 mps 743 mmHg 61%
    21:00 +27°C° 0 mm 1 mps 743 mmHg 70%
    22:00 +26°C° 0 mm 1 mps 743 mmHg 79%
    23:00 +23°C° 0 mm 0 mps 744 mmHg 88%

    Day after tomorrow, 21 January, Sunday

    Time Temperature Precipitation Wind Pressure Humidity
    00:00 +22°C° 0 mm 0 mps 743 mmHg 91%
    01:00 +22°C° 0 mm 0 mps 743 mmHg 93%
    02:00 +22°C° 0 mm 0 mps 742 mmHg 96%
    03:00 +21°C° 0 mm 0 mps 743 mmHg 97%
    04:00 +21°C° 0 mm 0 mps 743 mmHg 97%
    05:00 +21°C° 0 mm 0 mps 743 mmHg 98%
    06:00 +23°C° 0 mm 0 mps 743 mmHg 91%
    07:00 +24°C° 0 mm 0 mps 744 mmHg 84%
    08:00 +26°C° 0 mm 0 mps 745 mmHg 77%
    09:00 +28°C° 0 mm 0 mps 744 mmHg 65%
    10:00 +31°C° 0 mm 0 mps 744 mmHg 52%
    11:00 +34°C° 0 mm 0 mps 744 mmHg 39%
    12:00 +35°C° 0 mm 0 mps 743 mmHg 34%
    13:00 +39°C° 0 mm 1 mps 742 mmHg 28%
    14:00 +41°C° 0 mm 1 mps 741 mmHg 22%
    15:00 +39°C° 0 mm 1 mps 741 mmHg 24%
    16:00 +37°C° 0 mm 1 mps 741 mmHg 26%
    17:00 +35°C° 0 mm 1 mps 741 mmHg 27%
    18:00 +33°C° 0 mm 1 mps 741 mmHg 38%
    19:00 +30°C° 0 mm 1 mps 742 mmHg 48%
    20:00 +28°C° 0 mm 2 mps 743 mmHg 59%
    21:00 +27°C° 0 mm 1 mps 743 mmHg 68%
    22:00 +26°C° 0 mm 1 mps 743 mmHg 78%
    23:00 +23°C° 0 mm 0 mps 743 mmHg 88%

    22 January, Monday

    Time Temperature Precipitation Wind Pressure Humidity
    00:00 +23°C° 0 mm 0 mps 743 mmHg 90%
    01:00 +22°C° 0 mm 0 mps 742 mmHg 93%
    02:00 +22°C° 0 mm 0 mps 742 mmHg 96%
    03:00 +22°C° 0 mm 0 mps 742 mmHg 97%
    04:00 +21°C° 0 mm 0 mps 742 mmHg 97%
    05:00 +21°C° 0 mm 0 mps 742 mmHg 98%
    06:00 +23°C° 0 mm 0 mps 743 mmHg 91%
    07:00 +24°C° 0 mm 0 mps 743 mmHg 83%
    08:00 +25°C° 0 mm 0 mps 744 mmHg 76%
    09:00 +28°C° 0 mm 0 mps 744 mmHg 62%
    10:00 +31°C° 0 mm 0 mps 743 mmHg 48%
    11:00 +36°C° 0 mm 1 mps 743 mmHg 33%
    12:00 +37°C° 0 mm 1 mps 742 mmHg 28%
    13:00 +39°C° 0 mm 1 mps 741 mmHg 23%
    14:00 +40°C° 0 mm 1 mps 740 mmHg 18%
    15:00 +39°C° 0 mm 1 mps 740 mmHg 20%
    16:00 +37°C° 0 mm 1 mps 740 mmHg 22%
    17:00 +35°C° 0 mm 1 mps 740 mmHg 24%
    18:00 +33°C° 0 mm 1 mps 741 mmHg 35%
    19:00 +30°C° 0 mm 1 mps 741 mmHg 46%
    20:00 +27°C° 0 mm 2 mps 742 mmHg 57%
    21:00 +26°C° 0 mm 1 mps 742 mmHg 68%
    22:00 +26°C° 0 mm 1 mps 742 mmHg 78%
    23:00 +23°C° 0 mm 0 mps 742 mmHg 89%

    23 January, Tuesday

    Time Temperature Precipitation Wind Pressure Humidity
    00:00 +22°C° 0 mm 0 mps 742 mmHg 91%
    01:00 +22°C° 0 mm 0 mps 742 mmHg 94%
    02:00 +22°C° 0 mm 0 mps 742 mmHg 97%
    03:00 +21°C° 0 mm 0 mps 742 mmHg 97%
    04:00 +21°C° 0 mm 0 mps 742 mmHg 98%
    05:00 +21°C° 0 mm 0 mps 742 mmHg 98%
    06:00 +22°C° 0 mm 0 mps 743 mmHg 93%
    07:00 +23°C° 0 mm 0 mps 743 mmHg 87%
    08:00 +25°C° 0 mm 0 mps 744 mmHg 82%
    09:00 +28°C° 0 mm 0 mps 744 mmHg 68%
    10:00 +31°C° 0 mm 0 mps 743 mmHg 55%
    11:00 +34°C° 0 mm 0 mps 743 mmHg 42%
    12:00 +35°C° 0 mm 0 mps 742 mmHg 36%
    13:00 +36°C° 0 mm 0 mps 741 mmHg 30%
    14:00 +40°C° 0 mm 1 mps 741 mmHg 24%
    15:00 +37°C° 0 mm 1 mps 741 mmHg 26%
    16:00 +36°C° 0 mm 1 mps 740 mmHg 29%
    17:00 +35°C° 0 mm 1 mps 740 mmHg 31%
    18:00 +32°C° 0 mm 1 mps 741 mmHg 40%
    19:00 +30°C° 0 mm 1 mps 742 mmHg 50%
    20:00 +28°C° 0 mm 1 mps 742 mmHg 59%
    21:00 +27°C° 0 mm 1 mps 742 mmHg 69%
    22:00 +26°C° 0 mm 1 mps 742 mmHg 78%
    23:00 +23°C° 0 mm 0 mps 742 mmHg 88%

    24 January, Wednesday

    Time Temperature Precipitation Wind Pressure Humidity
    00:00 +22°C° 0 mm 0 mps 742 mmHg 91%
    01:00 +22°C° 0 mm 0 mps 742 mmHg 93%
    02:00 +22°C° 0 mm 0 mps 742 mmHg 96%
    03:00 +21°C° 0 mm 0 mps 742 mmHg 97%
    04:00 +21°C° 0 mm 0 mps 742 mmHg 97%
    05:00 +21°C° 0 mm 0 mps 742 mmHg 98%
    06:00 +22°C° 0 mm 0 mps 743 mmHg 90%
    07:00 +24°C° 0 mm 0 mps 743 mmHg 83%
    08:00 +26°C° 0 mm 0 mps 743 mmHg 75%
    09:00 +29°C° 0 mm 0 mps 743 mmHg 62%
    10:00 +32°C° 0 mm 0 mps 743 mmHg 49%
    11:00 +35°C° 0 mm 0 mps 743 mmHg 37%
    12:00 +36°C° 0 mm 0 mps 742 mmHg 32%
    13:00 +37°C° 0 mm 0 mps 741 mmHg 27%
    14:00 +39°C° 0 mm 0 mps 740 mmHg 22%
    15:00 +37°C° 0 mm 0 mps 740 mmHg 26%
    16:00 +37°C° 0 mm 1 mps 740 mmHg 29%
    17:00 +35°C° 0 mm 1 mps 740 mmHg 33%
    18:00 +33°C° 0 mm 1 mps 741 mmHg 42%
    19:00 +30°C° 0 mm 1 mps 741 mmHg 52%
    20:00 +28°C° 0 mm 2 mps 742 mmHg 62%
    21:00 +27°C° 0 mm 1 mps 742 mmHg 70%
    22:00 +26°C° 0 mm 1 mps 742 mmHg 79%
    23:00 +25°C° 0 mm 1 mps 743 mmHg 87%
    Show more